Location: El Manguito
(10.2358°N, 67.3634°W)
Time: 15:23:22
(UTC+00:00)

NOAA 6 - Pass Details

Date: 10 September 2024
Orbit: 769 x 782 km, 98.6° (Epoch: 15 October)

Event Time Altitude Azimuth Distance (km) Brightness Sun altitude
Rises 23:12:26 0° 164° (SSE) 3,232 7.0 -10.6°
Reaches altitude 10° 23:14:44 10° 163° (SSE) 2,305 6.2 -11.1°
Maximum altitude 23:19:48 77° 77° (ENE) 790 3.9 -12.4°
Drops below altitude 10° 23:24:52 10° 352° (N) 2,304 6.7 -13.6°
Sets 23:27:11 0° 351° (N) 3,231 7.5 -14.2°
